Deering, AK

5:56 PM AKDT on April 21, 2018 (GMT -0800)
Deering (New)

Weather History for PADE - February, 2013

Change the Weather History Date:

Saturday, February 2, 2013

  Actual Average (PAOT) Record (PAOT)
Temperature  
Mean Temperature -2 °F -  
Max Temperature 5 °F 1 °F 35 °F (1985)
Min Temperature -9 °F -11 °F -44 °F (1993)
Degree Days  
Heating Degree Days 67    
Moisture  
Dew Point -7 °F    
Average Humidity 81    
Maximum Humidity 85    
Minimum Humidity 77    
Precipitation  
Precipitation 0.00 in - - ()
Sea Level Pressure  
Sea Level Pressure 29.68 in    
Wind  
Wind Speed 7 mph (SSW)    
Max Wind Speed 10 mph    
Max Gust Speed -    
Visibility 10 miles    
Events      
Averages and records for this station are not official NWS values.
T = Trace of Precipitation, MM = Missing Value Source: NWS Daily Summary

Daily Weather History Graph

Daily Weather History Graph

Search for Another Location

Airport or City:

Astronomy

Feb. 02, 2013 Rise Set
Actual Time 10:42 AM AKST 5:28 PM AKST
Civil Twilight 9:39 AM AKST 6:31 PM AKST
Nautical Twilight 8:36 AM AKST 7:34 PM AKST
Astronomical Twilight 7:36 AM AKST 8:34 PM AKST
Moon 2:59 AM AKST (2/2) 10:41 AM AKST (2/2)
Length of Visible Light 8h 51m
Length of Day
6h 46m
Waning Gibbous, 58% of the Moon is Illuminated
Feb 2
Waning Gibbous
Feb 3
Last Quarter
Feb 9
New
Feb 17
First Quarter
Feb 25
Full

Hourly Weather History & Observations

Time (AKST) Temp. Windchill Dew Point Humidity Pressure Visibility Wind Dir Wind Speed Gust Speed Precip Events Conditions
12:53 AM -8.0 °F -22.5 °F -11.9 °F 83% 29.98 in 10.0 mi West 6.9 mph - N/A   Overcast
1:46 AM -9.4 °F -24.3 °F -14.8 °F 77% 29.95 in 10.0 mi SSW 6.9 mph - N/A   Scattered Clouds
1:53 AM -9.0 °F -22.3 °F -14.1 °F 79% 29.94 in 10.0 mi SW 5.8 mph - N/A   Partly Cloudy
3:53 AM -7.1 °F -23.9 °F -11.9 °F 79% 29.88 in 10.0 mi SSW 9.2 mph - N/A   Clear
4:53 AM -6.0 °F -16.9 °F -11.0 °F 79% 29.83 in 10.0 mi SW 4.6 mph - N/A   Clear
5:53 AM -4.0 °F -16.3 °F -9.0 °F 79% 29.79 in 10.0 mi SSW 5.8 mph - N/A   Clear
6:53 AM -2.9 °F -11.2 °F -7.1 °F 82% 29.76 in 10.0 mi South 3.5 mph - N/A   Clear
7:53 AM -2.0 °F -12.2 °F -6.0 °F 83% 29.73 in 10.0 mi South 4.6 mph - N/A   Clear
8:53 AM -2.0 °F - -6.0 °F 83% 29.70 in 10.0 mi Calm Calm - N/A   Mostly Cloudy
9:53 AM 3.9 °F -10.4 °F -0.9 °F 80% 29.67 in 10.0 mi NE 9.2 mph - N/A   Mostly Cloudy
10:53 AM 5.0 °F -8.1 °F -0.0 °F 80% 29.66 in 10.0 mi NE 8.1 mph - N/A   Overcast
11:53 AM 1.9 °F -5.6 °F -2.0 °F 83% 29.65 in 10.0 mi SSW 3.5 mph - N/A   Partly Cloudy
12:53 PM 1.0 °F -10.3 °F -4.0 °F 79% 29.64 in 10.0 mi SSW 5.8 mph - N/A   Partly Cloudy
1:53 PM -0.9 °F -14.1 °F -5.1 °F 83% 29.62 in 10.0 mi SSW 6.9 mph - N/A   Clear
2:53 PM -2.0 °F -17.7 °F -7.1 °F 79% 29.60 in 10.0 mi SSW 9.2 mph - N/A   Clear
3:53 PM -0.0 °F -14.2 °F -5.1 °F 79% 29.59 in 10.0 mi SSW 8.1 mph - N/A   Clear
4:53 PM -2.9 °F -18.8 °F -7.1 °F 82% 29.58 in 7.0 mi SSW 9.2 mph - N/A   Mostly Cloudy
5:12 PM -2.2 °F -18.9 °F -7.6 °F 78% 29.57 in 9.0 mi SSW 10.4 mph - N/A   Scattered Clouds
5:53 PM -5.1 °F -22.5 °F -9.0 °F 83% 29.57 in 10.0 mi SSW 10.4 mph - N/A   Clear
6:53 PM -5.1 °F -21.5 °F -9.9 °F 80% 29.57 in 10.0 mi SSW 9.2 mph - N/A   Clear
7:53 PM -5.1 °F -21.5 °F -9.0 °F 83% 29.56 in 10.0 mi SSW 9.2 mph - N/A   Partly Cloudy
8:53 PM -4.0 °F -19.0 °F -8.0 °F 83% 29.56 in 10.0 mi SSW 8.1 mph - N/A   Mostly Cloudy
9:53 PM -2.0 °F -16.6 °F -6.0 °F 83% 29.56 in 10.0 mi SW 8.1 mph - N/A   Partly Cloudy
10:38 PM -0.4 °F -13.4 °F -4.0 °F 85% 29.56 in 10.0 mi SW 6.9 mph - N/A   Scattered Clouds
10:53 PM 1.0 °F -11.7 °F -2.9 °F 83% 29.57 in 9.0 mi SW 6.9 mph - N/A   Mostly Cloudy
11:53 PM 3.9 °F -8.2 °F -0.0 °F 84% 29.57 in 10.0 mi SW 6.9 mph - N/A   Overcast